sat.trackr.live / text

‹ back to catalog

STARLINK-32194

NORAD 60315 · 2024-133Q

PAYLOAD ACTIVE UNKNOWN

§ Identity

Operator
Country
US
Launch date
2024-07-28
Launch site
AFWTR
Launch vehicle
Mass (kg)
RCS (m²)

Purposes: comms

External: N2YO · Heavens-Above · Gunter

§ Orbital elements

Epoch: 2026-09-21T19:05:28.800672Z

Period
93.85 min
Inclination
53.1595°
Eccentricity
0.0001192
Mean motion
15.34387732 rev/d
Perigee alt
461.9 km
Apogee alt
463.6 km
Semi-major
6,840.9 km
B*
8.3628e-6
RAAN
103.4308°
Arg perigee
98.4399°
Mean anomaly
261.6739°
Rev number
12,170

§ Raw data

STARLINK-321941 60315U 24133Q   26264.79547223 -.00000094  00000+0  83628-5 0  99922 60315  53.1595 103.4308 0001192  98.4399 261.6739 15.34387732121707

JSON: /api/v1/satellites/60315 · /tle

For live sub-satellite position, see the globe view (requires WebGL).

§ Visibility from observer

Set your observer location to see the next 7 days of passes ≥ 10°. The values pass through the URL so the page stays shareable.

No JS? Fill the form by hand. The geolocation button needs JavaScript.